Simultaneous Nadir Overpasses (SNOs) Predictions

Prediction of SNOs between METOP-B and NOAA-19 Satellite Orbit:

Table of predicted SNOs for the next 14.0 days since TLE Epoch: 2/2/2015
Index Date (METOP-B) Time (METOP-B) Lat,Lon (METOP-B) SZA (METOP-B ) Date (NOAA-19) Time (NOAA-19) Lat,Lon (NOAA-19) SZA (NOAA-19 ) Distance(km) Time Diff (sec)
1 02/06/2015 05:21:22 74.62, 96.26 90.36 02/06/2015 05:20:08 74.66, 95.88 90.42 11.95 74
2 02/06/2015 06:12:05 -74.54, -96.64 89.74 02/06/2015 06:11:01 -74.56, -96.56 89.71 3.27 64
3 02/06/2015 07:02:45 74.56, 70.73 90.27 02/06/2015 07:02:09 74.57, 70.63 90.30 3.35 36
4 02/06/2015 07:53:27 -74.52,-122.03 89.78 02/06/2015 07:53:03 -74.51,-121.94 89.78 2.96 24
5 02/06/2015 08:44:07 74.54, 45.34 90.23 02/06/2015 08:44:11 74.52, 45.25 90.22 2.86 4
6
